| time (UTC) | temp F | wind direction | speed MPH | gust MPH | rain 1hr in | rain 24hr in | rain mn in | humidity % | barometer mb |
| 20260507230044 | 52 | 212 | 12.0 | 21.0 | 0.00 | 0.58 | 0.58 | 84 | 1001.8 |
| 20260507224547 | 55 | 182 | 6.0 | 14.0 | 0.00 | 0.58 | 0.58 | 86 | 1001.2 |
| 20260507223039 | 55 | 153 | 10.0 | 13.0 | 0.00 | 0.58 | 0.58 | 86 | 1001.1 |
| 20260507221538 | 54 | 110 | 9.0 | 18.0 | 0.00 | 0.58 | 0.58 | 87 | 1001.0 |
| 20260507220048 | 55 | 139 | 9.0 | 18.0 | 0.00 | 0.58 | 0.58 | 87 | 1001.0 |
| 20260507214548 | 54 | 143 | 10.0 | 16.0 | 0.00 | 0.58 | 0.58 | 87 | 1001.1 |
| 20260507213044 | 54 | 134 | 11.0 | 21.0 | 0.00 | 0.58 | 0.58 | 88 | 1000.8 |
| 20260507211539 | 54 | 131 | 11.0 | 24.0 | 0.00 | 0.58 | 0.58 | 88 | 1000.8 |
| 20260507210041 | 54 | 146 | 12.0 | 20.0 | 0.01 | 0.58 | 0.58 | 88 | 1001.0 |
| 20260507204552 | 54 | 138 | 12.0 | 23.0 | 0.01 | 0.58 | 0.58 | 88 | 1000.9 |
| 20260507203048 | 55 | 158 | 11.0 | 20.0 | 0.06 | 0.58 | 0.58 | 88 | 1000.8 |
| 20260507201542 | 54 | 148 | 14.0 | 22.0 | 0.12 | 0.58 | 0.58 | 88 | 1000.4 |
| 20260507200043 | 54 | 124 | 14.0 | 24.0 | 0.13 | 0.57 | 0.57 | 89 | 1000.5 |
| 20260507194541 | 54 | 145 | 17.0 | 25.0 | 0.15 | 0.57 | 0.57 | 89 | 1000.9 |
| 20260507193039 | 54 | 91 | 15.0 | 24.0 | 0.15 | 0.52 | 0.52 | 89 | 1001.5 |
| 20260507191538 | 54 | 145 | 12.0 | 17.0 | 0.14 | 0.46 | 0.46 | 89 | 1003.1 |
| 20260507190052 | 54 | 121 | 12.0 | 19.0 | 0.19 | 0.44 | 0.44 | 89 | 1003.0 |
| 20260507184548 | 54 | 142 | 9.0 | 18.0 | 0.26 | 0.42 | 0.42 | 89 | 1003.0 |
| 20260507183044 | 54 | 148 | 5.0 | 15.0 | 0.31 | 0.36 | 0.36 | 89 | 1003.5 |
| 20260507181540 | 54 | 139 | 13.0 | 22.0 | 0.32 | 0.32 | 0.32 | 89 | 1003.6 |
| 20260507180039 | 54 | 193 | 6.0 | 14.0 | 0.25 | 0.25 | 0.25 | 90 | 1004.2 |
| 20260507174551 | 54 | 203 | 6.0 | 11.0 | 0.16 | 0.16 | 0.16 | 88 | 1004.3 |
| 20260507173046 | 55 | 136 | 9.0 | 26.0 | 0.05 | 0.05 | 0.05 | 87 | 1003.9 |
| 20260507171543 | 55 | 118 | 14.0 | 30.0 | 0.00 | 0.00 | 0.00 | 85 | 1002.9 |
| 20260507170049 | 56 | 139 | 18.0 | 32.0 | 0.00 | 0.00 | 0.00 | 83 | 1002.7 |
| 20260507164539 | 57 | 146 | 15.0 | 31.0 | 0.00 | 0.00 | 0.00 | 79 | 1002.9 |
| 20260507163040 | 57 | 180 | 15.0 | 27.0 | 0.00 | 0.00 | 0.00 | 79 | 1003.4 |
| 20260507161539 | 59 | 133 | 20.0 | 44.0 | 0.00 | 0.00 | 0.00 | 77 | 1003.3 |
| 20260507160046 | 59 | 154 | 17.0 | 36.0 | 0.00 | 0.00 | 0.00 | 77 | 1004.2 |
| 20260507154548 | 59 | 155 | 19.0 | 32.0 | 0.00 | 0.00 | 0.00 | 75 | 1004.2 |
| 20260507153049 | 60 | 164 | 16.0 | 32.0 | 0.00 | 0.00 | 0.00 | 75 | 1004.5 |
| 20260507151540 | 60 | 132 | 15.0 | 29.0 | 0.00 | 0.00 | 0.00 | 74 | 1005.2 |
| 20260507150041 | 59 | 159 | 17.0 | 30.0 | 0.00 | 0.00 | 0.00 | 76 | 1005.3 |
| 20260507144545 | 60 | 151 | 15.0 | 30.0 | 0.00 | 0.00 | 0.00 | 76 | 1005.7 |
| 20260507143047 | 60 | 204 | 15.0 | 38.0 | 0.00 | 0.00 | 0.00 | 77 | 1005.9 |
| 20260507141543 | 59 | 158 | 12.0 | 31.0 | 0.00 | 0.00 | 0.00 | 79 | 1006.1 |
| 20260507140045 | 59 | 164 | 15.0 | 33.0 | 0.00 | 0.00 | 0.00 | 79 | 1006.2 |
| 20260507134544 | 58 | 153 | 10.0 | 33.0 | 0.00 | 0.00 | 0.00 | 80 | 1006.7 |
| 20260507133039 | 58 | 175 | 13.0 | 28.0 | 0.00 | 0.00 | 0.00 | 81 | 1006.6 |
| 20260507131556 | 57 | 166 | 16.0 | 30.0 | 0.00 | 0.00 | 0.00 | 82 | 1006.8 |
| 20260507130101 | 57 | 136 | 17.0 | 35.0 | 0.00 | 0.00 | 0.00 | 81 | 1007.0 |
| 20260507124551 | 57 | 132 | 19.0 | 32.0 | 0.00 | 0.00 | 0.00 | 81 | 1007.1 |
| 20260507123042 | 57 | 186 | 20.0 | 34.0 | 0.00 | 0.00 | 0.00 | 82 | 1007.4 |
| 20260507121540 | 56 | 139 | 20.0 | 38.0 | 0.00 | 0.00 | 0.00 | 83 | 1006.9 |
| 20260507120042 | 57 | 136 | 15.0 | 32.0 | 0.00 | 0.00 | 0.00 | 82 | 1007.3 |
| 20260507114538 | 57 | 144 | 14.0 | 28.0 | 0.00 | 0.00 | 0.00 | 83 | 1007.6 |
| 20260507113038 | 57 | 202 | 15.0 | 28.0 | 0.00 | 0.00 | 0.00 | 83 | 1007.8 |
| 20260507111545 | 57 | 169 | 20.0 | 36.0 | 0.00 | 0.00 | 0.00 | 82 | 1008.6 |
| 20260507110043 | 57 | 234 | 14.0 | 31.0 | 0.00 | 0.00 | 0.00 | 82 | 1009.0 |
| 20260507104547 | 57 | 124 | 17.0 | 35.0 | 0.00 | 0.00 | 0.00 | 81 | 1008.0 |
| 20260507103046 | 57 | 101 | 18.0 | 34.0 | 0.00 | 0.00 | 0.00 | 82 | 1008.4 |
| 20260507101546 | 57 | 158 | 18.0 | 42.0 | 0.00 | 0.00 | 0.00 | 82 | 1008.7 |
| 20260507100047 | 56 | 153 | 21.0 | 40.0 | 0.00 | 0.00 | 0.00 | 82 | 1008.9 |
| 20260507094546 | 57 | 149 | 19.0 | 35.0 | 0.00 | 0.00 | 0.00 | 82 | 1008.1 |
| 20260507093048 | 57 | 159 | 15.0 | 26.0 | 0.00 | 0.00 | 0.00 | 82 | 1008.6 |
| 20260507091541 | 56 | 155 | 16.0 | 31.0 | 0.00 | 0.00 | 0.00 | 83 | 1009.6 |
| 20260507090039 | 56 | 193 | 20.0 | 36.0 | 0.00 | 0.00 | 0.00 | 83 | 1009.8 |
| 20260507084538 | 56 | 162 | 17.0 | 30.0 | 0.00 | 0.00 | 0.00 | 83 | 1009.8 |
| 20260507083047 | 56 | 160 | 8.0 | 14.0 | 0.00 | 0.00 | 0.00 | 82 | 1010.7 |
| 20260507081548 | 57 | 198 | 9.0 | 28.0 | 0.00 | 0.00 | 0.00 | 82 | 1010.5 |
| 20260507080051 | 57 | 153 | 17.0 | 27.0 | 0.00 | 0.00 | 0.00 | 81 | 1009.9 |
| 20260507074602 | 58 | 152 | 14.0 | 28.0 | 0.00 | 0.00 | 0.00 | 80 | 1010.4 |
| 20260507073039 | 58 | 148 | 10.0 | 23.0 | 0.00 | 0.00 | 0.00 | 80 | 1010.8 |
| 20260507071546 | 57 | 148 | 14.0 | 26.0 | 0.00 | 0.00 | 0.00 | 79 | 1011.4 |
| 20260507070046 | 58 | 165 | 17.0 | 25.0 | 0.00 | 0.00 | 0.00 | 79 | 1011.4 |
| 20260507064544 | 58 | 115 | 14.0 | 21.0 | 0.00 | 0.00 | 0.00 | 78 | 1011.3 |
| 20260507063043 | 57 | 151 | 9.0 | 20.0 | 0.00 | 0.00 | 0.00 | 77 | 1011.8 |
| 20260507061546 | 57 | 133 | 13.0 | 25.0 | 0.00 | 0.00 | 0.00 | 76 | 1011.6 |
| 20260507060040 | 57 | 96 | 14.0 | 22.0 | 0.00 | 0.00 | 0.00 | 75 | 1011.8 |
| 20260507054549 | 58 | 141 | 19.0 | 29.0 | 0.00 | 0.00 | 0.00 | 73 | 1011.5 |
| 20260507053050 | 58 | 98 | 16.0 | 25.0 | 0.00 | 0.00 | 0.00 | 69 | 1012.3 |
| 20260507051545 | 58 | 155 | 13.0 | 21.0 | 0.00 | 0.00 | 0.00 | 65 | 1013.0 |
| 20260507050042 | 58 | 131 | 17.0 | 27.0 | 0.00 | 0.00 | 0.00 | 65 | 1013.1 |
| 20260507044553 | 58 | 131 | 14.0 | 24.0 | 0.00 | 0.00 | 0.00 | 68 | 1013.5 |
| 20260507043049 | 58 | 151 | 15.0 | 24.0 | 0.00 | 0.00 | 0.00 | 70 | 1013.9 |
| 20260507041559 | 58 | 128 | 14.0 | 28.0 | 0.00 | 0.00 | 0.00 | 69 | 1014.2 |
| 20260507040050 | 59 | 135 | 14.0 | 24.0 | 0.00 | 0.00 | 0.00 | 68 | 1014.8 |
| 20260507034557 | 59 | 176 | 15.0 | 28.0 | 0.00 | 0.00 | 0.00 | 68 | 1015.2 |
| 20260507033053 | 58 | 162 | 10.0 | 20.0 | 0.00 | 0.00 | 0.00 | 69 | 1015.5 |
| 20260507031604 | 59 | 177 | 10.0 | 21.0 | 0.00 | 0.00 | 0.00 | 68 | 1015.9 |
| 20260507030053 | 59 | 117 | 7.0 | 24.0 | 0.00 | 0.00 | 0.00 | 68 | 1016.1 |
| 20260507024546 | 59 | 160 | 12.0 | 25.0 | 0.00 | 0.00 | 0.00 | 68 | 1016.3 |
| 20260507023046 | 59 | 111 | 11.0 | 20.0 | 0.00 | 0.00 | 0.00 | 67 | 1016.3 |
| 20260507021543 | 59 | 150 | 12.0 | 24.0 | 0.00 | 0.00 | 0.00 | 67 | 1016.5 |
| 20260507020040 | 59 | 159 | 10.0 | 25.0 | 0.00 | 0.00 | 0.00 | 67 | 1016.4 |
| 20260507014547 | 60 | 152 | 14.0 | 30.0 | 0.00 | 0.00 | 0.00 | 67 | 1016.4 |
| 20260507013038 | 60 | 141 | 13.0 | 29.0 | 0.00 | 0.00 | 0.00 | 67 | 1016.5 |
| 20260507011538 | 60 | 156 | 12.0 | 29.0 | 0.00 | 0.00 | 0.00 | 68 | 1016.6 |
| 20260507010045 | 60 | 129 | 15.0 | 29.0 | 0.00 | 0.00 | 0.00 | 68 | 1016.8 |
| 20260507004543 | 59 | 151 | 8.0 | 24.0 | 0.00 | 0.00 | 0.00 | 68 | 1016.9 |
| 20260507003050 | 60 | 134 | 11.0 | 23.0 | 0.00 | 0.00 | 0.00 | 68 | 1016.9 |
| 20260507001541 | 60 | 127 | 11.0 | 21.0 | 0.00 | 0.00 | 0.00 | 67 | 1016.8 |
| 20260507000042 | 60 | 148 | 11.0 | 20.0 | 0.00 | 0.00 | 0.00 | 66 | 1016.9 |
| 20260506234538 | 61 | 168 | 9.0 | 19.0 | 0.00 | 0.00 | 0.00 | 65 | 1016.6 |
| 20260506233055 | 62 | 153 | 9.0 | 24.0 | 0.00 | 0.00 | 0.00 | 63 | 1016.4 |
| 20260506231544 | 63 | 131 | 9.0 | 20.0 | 0.00 | 0.00 | 0.00 | 60 | 1016.3 |